N0BGS Weather Reports


time (UTC)temp
C
wind
direction
speed
KPH
gust
KPH
rain 1hr
cm
rain 24hr
cm
rain mn
cm
humidity
%
barometer
mb
20260504232004 14 0 0.0 0.0 0.00 0.00 0.00 65 1005.3
20260504231025 15 0 0.0 0.0 0.00 0.00 0.00 63 1005.2
20260504230025 15 251 0.0 4.8 0.00 0.00 0.00 66 1005.1
20260504225004 15 242 3.2 11.3 0.00 0.00 0.00 58 1005.1
20260504224004 15 258 1.6 11.3 0.00 0.00 0.00 61 1005.0
20260504223004 15 250 1.6 11.3 0.00 0.00 0.00 61 1004.9
20260504222025 15 257 1.6 11.3 0.00 0.00 0.00 60 1004.9
20260504221025 16 271 1.6 11.3 0.00 0.00 0.00 56 1004.9
20260504220004 16 245 3.2 12.9 0.00 0.00 0.00 58 1004.9
20260504215004 16 251 8.0 25.7 0.00 0.00 0.00 56 1005.0
20260504214004 16 263 4.8 19.3 0.00 0.00 0.00 56 1005.0
20260504213024 17 263 6.4 17.7 0.00 0.00 0.00 52 1004.8
20260504212024 17 268 6.4 25.7 0.00 0.00 0.00 54 1004.8
20260504211004 17 263 9.7 32.2 0.00 0.00 0.00 52 1004.7
20260504210004 17 234 9.7 24.1 0.00 0.00 0.00 51 1004.6
20260504205003 17 260 11.3 25.7 0.00 0.00 0.00 53 1004.4
20260504204024 17 254 12.9 33.8 0.00 0.00 0.00 52 1004.4
20260504203003 17 248 9.7 29.0 0.00 0.00 0.00 53 1004.4
20260504202003 16 248 6.4 24.1 0.00 0.00 0.00 56 1004.4
20260504201003 16 258 11.3 22.5 0.00 0.00 0.00 55 1004.3
20260504200003 17 261 11.3 37.0 0.00 0.00 0.00 54 1004.1
20260504195024 16 241 9.7 25.7 0.00 0.00 0.00 57 1004.1
20260504194003 15 235 12.9 38.6 0.00 0.00 0.00 58 1004.2
20260504193003 16 234 11.3 37.0 0.00 0.00 0.00 57 1004.2
20260504192003 16 215 9.7 20.9 0.00 0.03 0.00 56 1004.2
20260504191003 16 245 11.3 30.6 0.00 0.03 0.00 57 1004.2
20260504190003 15 236 12.9 37.0 0.00 0.05 0.00 60 1004.4
20260504185024 15 231 12.9 27.4 0.00 0.05 0.00 63 1004.4
20260504184024 14 238 11.3 30.6 0.00 0.05 0.00 62 1004.6
20260504183003 15 209 16.1 29.0 0.00 0.08 0.00 60 1004.7
20260504182003 15 217 9.7 25.7 0.00 0.08 0.00 60 1004.6
20260504181003 15 227 12.9 30.6 0.00 0.10 0.00 59 1004.9
20260504180003 14 216 11.3 25.7 0.00 0.10 0.00 62 1005.0
20260504175024 13 214 8.0 19.3 0.00 0.13 0.00 64 1005.0
20260504174024 13 238 9.7 24.1 0.00 0.15 0.00 64 1005.2
20260504173004 13 227 8.0 19.3 0.00 0.18 0.00 61 1005.1
20260504172004 13 231 9.7 24.1 0.00 0.18 0.00 60 1005.1
20260504171004 13 222 4.8 16.1 0.00 0.20 0.00 59 1004.9
20260504151004 13 209 9.7 27.4 0.00 0.46 0.00 53 1005.0
20260504141004 12 231 8.0 19.3 0.00 0.58 0.00 55 1006.1
20260504082004 0 245 1.6 12.9 0.00 1.14 0.00 87 1006.1
20260504081025 0 247 1.6 11.3 0.00 1.17 0.00 88 1006.3
20260504050004 3 267 1.6 8.0 0.00 1.19 0.00 76 1005.4
20260504045004 3 270 0.0 9.7 0.00 1.19 0.00 76 1005.3
20260504044004 3 266 3.2 14.5 0.00 1.19 0.00 77 1005.2
20260504043004 2 270 3.2 12.9 0.00 1.19 0.00 78 1005.1
20260504042004 2 269 1.6 12.9 0.00 1.19 0.00 78 1005.1
20260504041004 2 265 0.0 4.8 0.00 1.19 0.00 77 1005.0
20260504040025 2 269 0.0 6.4 0.00 1.19 0.00 76 1005.0
20260504035004 3 268 1.6 11.3 0.00 1.19 1.19 76 1004.9
20260504034004 3 275 1.6 11.3 0.00 1.19 1.19 76 1004.8
20260504033004 3 269 0.0 6.4 0.00 1.19 1.19 76 1004.7
20260504032004 3 268 0.0 3.2 0.00 1.19 1.19 76 1004.7
20260504031004 3 266 0.0 11.3 0.00 1.19 1.19 74 1004.7
20260504030003 3 280 0.0 6.4 0.00 1.19 1.19 73 1004.6
20260504025003 4 265 1.6 14.5 0.00 1.19 1.19 71 1004.5
20260504024003 4 270 1.6 12.9 0.00 1.19 1.19 70 1004.5
20260504023003 4 263 1.6 9.7 0.00 1.19 1.19 72 1004.5
20260504022024 4 263 1.6 14.5 0.00 1.19 1.19 71 1004.3
20260504021003 4 262 3.2 11.3 0.00 1.19 1.19 73 1004.2
20260504020003 5 267 3.2 14.5 0.00 1.19 1.19 72 1004.1
20260504015003 5 267 3.2 17.7 0.00 1.19 1.19 72 1004.1
20260504014024 5 264 1.6 12.9 0.00 1.19 1.19 72 1004.0
20260504013003 5 260 1.6 11.3 0.00 1.19 1.19 71 1004.0
20260504012003 5 268 1.6 12.9 0.00 1.19 1.19 69 1003.9
20260504011003 6 262 4.8 20.9 0.00 1.19 1.19 66 1003.8
20260504010003 6 273 4.8 27.4 0.00 1.19 1.19 67 1003.6
20260504005003 6 272 6.4 25.7 0.00 1.19 1.19 66 1003.4
20260504004003 6 272 4.8 24.1 0.00 1.19 1.19 65 1003.3
20260504003024 6 271 4.8 19.3 0.00 1.19 1.19 65 1003.1
20260504002003 7 274 4.8 17.7 0.00 1.19 1.19 64 1002.9
20260504001003 7 271 4.8 20.9 0.00 1.19 1.19 66 1002.8
20260504000003 7 279 4.8 24.1 0.00 1.19 1.19 67 1002.5
20260503235024 7 276 3.2 20.9 0.00 1.19 1.19 75 1002.4
20260503234024 8 299 0.0 6.4 0.00 1.19 1.19 84 1002.2
20260503233024 8 321 0.0 3.2 0.00 1.19 1.19 82 1002.1